sat.trackr.live / text

‹ back to catalog

STARLINK-37134

NORAD 68281 · 2026-055V

PAYLOAD ACTIVE UNKNOWN

§ Identity

Operator
Country
US
Launch date
2026-03-19
Launch site
AFETR
Launch vehicle
Mass (kg)
RCS (m²)

Purposes: comms

External: N2YO · Heavens-Above · Gunter

§ Orbital elements

Epoch: 2026-05-24T23:42:46.141920Z

Period
94.10 min
Inclination
53.1575°
Eccentricity
0.0000861
Mean motion
15.30224014 rev/d
Perigee alt
474.6 km
Apogee alt
475.7 km
Semi-major
6,853.3 km
B*
8.1355e-4
RAAN
325.5018°
Arg perigee
99.1812°
Mean anomaly
260.9286°
Rev number
1,160

§ Raw data

STARLINK-371341 68281U 26055V   26144.98803405  .00023831  00000+0  81355-3 0  99982 68281  53.1575 325.5018 0000861  99.1812 260.9286 15.30224014 11605

JSON: /api/v1/satellites/68281 · /tle

For live sub-satellite position, see the globe view (requires WebGL).

§ Visibility from observer

Set your observer location to see the next 7 days of passes ≥ 10°. The values pass through the URL so the page stays shareable.

No JS? Fill the form by hand. The geolocation button needs JavaScript.